* Astronomy

Members Login
Username 
 
Password 
    Remember Me  
Post Info TOPIC: Asteroid 2011 CG50


L

Posts: 131433
Date:
Asteroid 2011 CG50
Permalink  
 


Orbital elements:
2011 CG50 Earth MOID = 0.0372 AU
Epoch 2011 Feb. 8.0 TT = JDT 2455600.5 MPC
M 24.76321 (2000.0) P Q
n 0.47757254 Peri. 248.85697 +0.80280493 -0.58288120
a 1.6209756 Node 146.43022 +0.59560826 +0.77428039
e 0.6879143 Incl. 13.11986 +0.02747820 +0.24645362
P 2.06 H 24.0 G 0.15 U 8

MPEC 2011 - C85


__________________
Page 1 of 1  sorted by
 
Quick Reply

Please log in to post quick replies.



Create your own FREE Forum
Report Abuse
Powered by ActiveBoard